TimeEDT,TemperatureF,Dew PointF,Humidity,Sea Level PressureIn,VisibilityMPH,Wind Direction,Wind SpeedMPH,Gust SpeedMPH,PrecipitationIn,Events,Conditions,WindDirDegrees,DateUTC
12:53 AM,62.1,32.0,32,29.92,10.0,SSE,9.2,-,N/A,,Clear,150,2013-03-11 04:53:00
1:53 AM,61.0,32.0,34,29.91,10.0,SSE,8.1,-,N/A,,Clear,160,2013-03-11 05:53:00
2:53 AM,60.1,32.0,35,29.90,10.0,South,9.2,-,N/A,,Clear,170,2013-03-11 06:53:00
3:53 AM,59.0,30.9,35,29.88,10.0,South,9.2,-,N/A,,Partly Cloudy,170,2013-03-11 07:53:00
4:53 AM,59.0,30.9,35,29.86,10.0,SSE,8.1,-,N/A,,Partly Cloudy,160,2013-03-11 08:53:00
5:53 AM,57.9,30.9,36,29.88,10.0,South,4.6,-,N/A,,Partly Cloudy,190,2013-03-11 09:53:00
6:53 AM,55.0,32.0,42,29.90,10.0,SE,4.6,-,N/A,,Scattered Clouds,140,2013-03-11 10:53:00
7:53 AM,54.0,30.9,41,29.89,10.0,SSE,3.5,-,N/A,,Scattered Clouds,150,2013-03-11 11:53:00
8:53 AM,53.1,33.1,47,29.89,10.0,SE,5.8,-,N/A,,Partly Cloudy,130,2013-03-11 12:53:00
9:53 AM,55.9,32.0,40,29.88,10.0,SSE,5.8,-,N/A,,Partly Cloudy,160,2013-03-11 13:53:00
10:53 AM,57.9,32.0,37,29.85,10.0,SSE,10.4,17.3,N/A,,Mostly Cloudy,160,2013-03-11 14:53:00
11:53 AM,59.0,33.1,38,29.82,10.0,SSE,9.2,-,N/A,,Overcast,160,2013-03-11 15:53:00
12:53 PM,60.1,36.0,41,29.81,10.0,SSE,11.5,21.9,0.00,Rain,Light Rain,160,2013-03-11 16:53:00
1:53 PM,60.1,37.9,44,29.77,10.0,South,13.8,18.4,0.00,,Overcast,170,2013-03-11 17:53:00
2:53 PM,55.0,45.0,69,29.73,10.0,SSE,10.4,21.9,0.03,Rain,Light Rain,150,2013-03-11 18:53:00
3:53 PM,54.0,46.0,75,29.69,10.0,SSE,5.8,-,0.03,Rain,Light Rain,150,2013-03-11 19:53:00
4:53 PM,55.9,46.0,69,29.65,10.0,SE,8.1,-,0.01,,Overcast,140,2013-03-11 20:53:00
5:53 PM,57.9,45.0,62,29.65,10.0,South,9.2,17.3,0.00,,Overcast,170,2013-03-11 21:53:00
7:53 PM,54.0,48.0,80,29.65,8.0,South,12.7,19.6,0.05,Rain,Light Rain,170,2013-03-11 23:53:00
8:20 PM,53.6,48.2,82,29.68,5.0,West,12.7,20.7,0.05,Rain,Rain,260,2013-03-12 00:20:00
8:29 PM,51.8,48.2,88,29.71,2.5,West,15.0,20.7,0.14,Rain,Rain,270,2013-03-12 00:29:00
8:39 PM,50.0,46.4,87,29.72,3.0,WNW,13.8,25.3,0.18,Rain,Rain,290,2013-03-12 00:39:00
8:53 PM,48.9,44.1,83,29.73,7.0,West,10.4,24.2,0.20,Rain,Light Rain,260,2013-03-12 00:53:00
9:04 PM,48.2,44.6,87,29.73,8.0,WSW,11.5,24.2,0.01,Rain,Light Rain,240,2013-03-12 01:04:00
9:53 PM,46.9,43.0,86,29.75,9.0,WSW,9.2,-,0.05,Rain,Light Rain,240,2013-03-12 01:53:00
10:53 PM,46.9,42.1,83,29.76,10.0,WSW,4.6,-,0.01,,Overcast,240,2013-03-12 02:53:00
11:53 PM,46.0,35.1,66,29.79,10.0,West,12.7,23.0,0.00,Rain,Light Rain,280,2013-03-12 03:53:00